History for Boise, ID on Friday, February 5, 2016

Jump to data by:

Latest visited Airport Codes: KBOI

Data type:
 

« Previous Day | Next Day »

 
Daily Summary
Actual Average Record
Temperature
Mean Temperature 34 °F 34 °F  
Max Temperature 42 °F 42 °F 62 °F (1963)
Min Temperature 28 °F 27 °F -15 °F (1989)
Degree Days
Heating Degree Days 32 31  
Month to date heating degree days 156  
Since 1 July heating degree days 3517  
Cooling Degree Days 0 0  
Month to date cooling degree days 0  
Year to date cooling degree days 0  
Moisture
Dew Point 31 °F    
Average Humidity 96    
Maximum Humidity 100    
Minimum Humidity 79    
Precipitation
Precipitation 0.01 in 0.03 in 0.45 in (1890)
Month to date precipitation 0.17  
Year to date precipitation 1.41  
Snow
Snow - 0.20 in 2.10 in (1948)
Month to date snowfall 0.7  
Since 1 July snowfall 15.5  
Snow Depth -    
Sea Level Pressure
Sea Level Pressure 30.55 in    
Wind
Wind Speed 1 mph ()    
Max Wind Speed 10 mph    
Max Gust Speed -    
Visibility 2.3 miles    
Events Fog   
Key: T is trace of precipitation, MM is missing value
Source: Averaged Metar Reports
Time (MST) Temp. Dew Point Humidity Sea Level Pressure Visibility Wind Direction Wind Speed Gust Speed Precip. Events Conditions
12:14 AM 33.8 °F 32.0 °F 93% 30.49 in 4.0 miles Calm Calm - N/A   Overcast
12:53 AM 32.0 °F 30.9 °F 96% 30.55 in 3.0 miles SSW 3.5 mph - N/A   Overcast
1:00 AM 32.0 °F 30.2 °F 93% 30.49 in 3.0 miles SSW 4.6 mph - N/A   Overcast
1:53 AM 32.0 °F 30.9 °F 96% 30.56 in 3.0 miles Calm Calm - N/A   Overcast
2:53 AM 32.0 °F 30.9 °F 96% 30.58 in 3.0 miles WSW 3.5 mph - N/A   Overcast
3:25 AM 33.8 °F 32.0 °F 93% 30.53 in 2.5 miles SE 3.5 mph - 0.00 in   Overcast
3:42 AM 33.8 °F 32.0 °F 93% 30.53 in 3.0 miles Calm Calm - 0.01 in   Overcast
3:53 AM 32.0 °F 30.9 °F 96% 30.58 in 2.5 miles East 3.5 mph - 0.01 in   Overcast
4:53 AM 32.0 °F 32.0 °F 100% 30.58 in 2.0 miles Calm Calm - N/A   Overcast
5:05 AM 32.0 °F 30.2 °F 93% 30.53 in 2.0 miles Calm Calm - N/A   Mostly Cloudy
5:26 AM 30.2 °F 30.2 °F 100% 30.53 in 1.8 miles Calm Calm - N/A   Partly Cloudy
5:41 AM 30.2 °F 30.2 °F 100% 30.53 in 2.0 miles Calm Calm - N/A   Clear
5:53 AM 32.0 °F 30.9 °F 96% 30.58 in 2.0 miles NNE 3.5 mph - N/A   Clear
6:53 AM 30.0 °F 28.9 °F 96% 30.59 in 1.8 miles Calm Calm - N/A   Clear
7:09 AM 30.2 °F 28.4 °F 93% 30.52 in 2.0 miles Calm Calm - N/A   Clear
7:18 AM 28.4 °F 28.4 °F 100% 30.53 in 1.8 miles Calm Calm - N/A   Clear
7:33 AM 30.2 °F 28.4 °F 93% 30.53 in 1.8 miles North 3.5 mph - N/A   Scattered Clouds
7:40 AM 30.2 °F 30.2 °F 100% 30.52 in 1.2 miles NNE 3.5 mph - N/A   Mostly Cloudy
7:45 AM 30.2 °F 30.2 °F 100% 30.52 in 0.5 miles Calm Calm - N/A Fog Light Freezing Fog
7:51 AM 30.2 °F 30.2 °F 100% 30.52 in 0.2 miles Calm Calm - N/A Fog Light Freezing Fog
7:52 AM 30.9 °F 30.9 °F 100% 30.58 in 0.2 miles Calm Calm - N/A Fog Light Freezing Fog
8:53 AM 30.0 °F 30.0 °F 100% 30.59 in 0.2 miles Calm Calm - N/A Fog Light Freezing Fog
9:53 AM 28.9 °F 28.9 °F 100% 30.61 in 0.2 miles Calm Calm - N/A Fog Light Freezing Fog
10:53 AM 30.0 °F 30.0 °F 100% 30.62 in 0.2 miles Calm Calm - N/A Fog Light Freezing Fog
10:57 AM 30.2 °F 30.2 °F 100% 30.55 in 0.2 miles Calm Calm - N/A Fog Light Freezing Fog
11:22 AM 30.2 °F 30.2 °F 100% 30.55 in 0.2 miles Calm Calm - N/A Fog Light Freezing Fog
11:39 AM 32.0 °F 32.0 °F 100% 30.55 in 0.8 miles Calm Calm - N/A   Mist
11:53 AM 32.0 °F 32.0 °F 100% 30.61 in 1.8 miles Calm Calm - N/A   Scattered Clouds
12:04 PM 35.6 °F 33.8 °F 93% 30.54 in 2.5 miles Calm Calm - N/A   Partly Cloudy
12:11 PM 35.6 °F 33.8 °F 93% 30.53 in 3.0 miles Calm Calm - N/A   Clear
12:53 PM 39.9 °F 34.0 °F 79% 30.56 in 10.0 miles SSE 8.1 mph - N/A   Clear
1:53 PM 42.1 °F 36.0 °F 79% 30.54 in 10.0 miles South 10.4 mph - N/A   Clear

Powered by the Weather Underground, Inc.